Location: Quaker Farms
(41.4276°N, 73.1557°W)
Time: 19:45:12
(UTC+00:00)

S-56A Canister/Altair - Pass Details

Date: 17 June 2021
Orbit: 631 x 2501 km, 38.9° (Epoch: 30 July)

Event Time Altitude Azimuth Distance (km) Brightness Sun altitude
Rises 16:05:31 0° 276° (W) 3,730 10.9 69.4°
Reaches altitude 10° 16:08:16 10° 263° (W) 3,008 10.6 69.6°
Maximum altitude 16:14:20 27° 209° (SSW) 2,474 10.7 70.2°
Drops below altitude 10° 16:22:34 10° 158° (SSE) 4,172 11.7 70.8°
Sets 16:27:15 0° 148° (SSE) 5,483 12.1 71.1°
